Flag for Western Sahara Weather past 2 weeks in El Aaiún, Western Sahara

Now
82 °F

Sunny.


Feels Like: 83 °F
Forecast: N/A
Wind: 15 mph from North

Location: Laayoune/Hassan Isl

Current Time: Sep 20, 2014 at 7:37:17 PM

Latest Report: Sep 20, 2014 at 7:00 PM


Visibility: 10 mi

Pressure: 29.92 "Hg

Humidity: 48%

Dew point: 61 °F

Location of El AaiúnLocation

Historic Weather in El Aaiún — Graph

°F

El Aaiún temperature yesterday

Maximum temperature yesterday: 82 °F (at 1:00 PM)
Minimum temperature yesterday: 68 °F (at 6:00 AM)
Average temperature yesterday: 75 °F

Past Weeks' High & Low Weather Summary

 TemperatureHumidityPressure
High95 °F (Sep 15, 4:00 PM)100% (Sep 8, 5:44 AM)30.09 "Hg (Sep 8, 5:44 AM)
Low68 °F (Sep 9, 6:00 AM)28% (Sep 15, 4:00 PM)29.86 "Hg (Sep 15, 5:00 PM)
Average77 °F70%29.98 "Hg
* Reported Sep 5 2:00 PM — Sep 20 2:00 PM, El Aaiún, Weather by CustomWeather, © 2014

Note: Actual official high and low records may vary slightly from our data, if they occured in-between our weather recording intervals... More about our weather records

Advertising

El Aaiún weather history for previous 24 hours

 ConditionsComfort  
Time TempWeatherWind HumidityBarometerVisibility
2:00 PM
Sep 20
86 °FWarm.12 mph40%29.98 "HgN/A
1:00 PM84 °FSunny.12 mph40%29.98 "Hg10 mi
12:00 PM82 °FWarm.14 mph48%30.01 "HgN/A
11:00 AM79 °FSunny.14 mph54%30.01 "Hg10 mi
10:00 AM73 °FSunny.10 mph78%30.01 "Hg10 mi
9:00 AM70 °FPassing clouds.8 mph83%29.98 "HgN/A
8:00 AM70 °FClear.8 mph83%29.98 "Hg5 mi
7:00 AM70 °FMild.9 mph83%29.98 "HgN/A
6:00 AM70 °FMild.8 mph83%29.95 "HgN/A
5:00 AM70 °FMild.6 mph83%29.95 "HgN/A
4:00 AM70 °FMild.6 mph83%29.95 "HgN/A
3:00 AM70 °FMild.7 mph83%29.95 "HgN/A
2:00 AM72 °FClear.7 mph73%29.95 "Hg10 mi
1:00 AM72 °FMild.8 mph73%29.98 "HgN/A
12:00 AM72 °FMild.8 mph73%29.98 "HgN/A
11:00 PM
Sep 19
73 °FMild.8 mph69%29.98 "HgN/A
10:00 PM73 °FMild.8 mph61%29.98 "HgN/A
9:00 PM75 °FMild.9 mph65%29.98 "HgN/A
8:00 PM77 °FSunny.12 mph54%29.95 "Hg10 mi
7:00 PM79 °FSunny.14 mph58%29.95 "Hg10 mi
Weather by CustomWeather, © 2014

See weather overviewHow to use our weather pages